Regional Weather Roundup
Issued by NWS

Home | Current Version | Previous Version | Graphics & Text | Print | Product List | Glossary On
Versions: 1 2 3 4 5 6 7 8 9 10 11 12 13 14 15 16 17 18 19 20 21 22 23 24 25 26 27 28 29 30 31 32 33 34 35 36 37 38 39 40 41 42 43 44 45 46 47 48 49 50
000
ASUS43 KIND 070559
RWRIN

WEATHER ROUNDUP FOR INDIANA
NATIONAL WEATHER SERVICE INDIANAPOLIS IN
200 AM EDT TUE JUL 07 2015

NOTE: "FAIR" INDICATES FEW OR NO CLOUDS BELOW 12,000 FEET WITH NO
SIGNIFICANT WEATHER AND/OR OBSTRUCTIONS TO VISIBILITY.

* - STATION DOES NOT REPORT WEATHER SUCH AS PRECIPITATION OR FOG.

+ - STATION NOT QUALITY CONTROLLED BY THE NATIONAL WEATHER SERVICE.
    USE DATA WITH CAUTION...ESPECIALLY DEWPOINT AND RELATIVE
    HUMIDITY OBSERVATIONS.

INZ001>003-010>013-019-020-070700-
NORTHWEST INDIANA

CITY           SKY/WX    TMP DP  RH WIND       PRES   REMARKS

$$

LMZ046-743>745-070700-
SOUTHERN LAKE MICHIGAN

STATION/POSITION TIME  TEMP    WIND        PRES    WAVE
                       AIR SEA DIR/SP/G            HT
                 (UTC) (F)     (DEG/KT/KT) (MB)    (FT)
BURNS HARBOR     0500   77     200/ 14/ 20 1011.2F
MICHIGAN CITY    0500   76     170/  9/ 11   N/A
5NW MICH CITY    0500   74 68  210/ 10/ 12   N/A     1

$$

INZ004-005-014>016-021>024-070700-
NORTH CENTRAL INDIANA

CITY           SKY/WX    TMP DP  RH WIND       PRES   REMARKS
GOSHEN         CLOUDY    77  70  79 SW10      29.89F
6HR MIN TEMP:  76; 6HR MAX TEMP:  81;

SOUTH BEND     CLOUDY    79  71  76 S9        29.88S
6HR MIN TEMP:  78; 6HR MAX TEMP:  83;


$$

INZ006>009-017-018-025>027-070700-
NORTHEAST INDIANA

CITY           SKY/WX    TMP DP  RH WIND       PRES   REMARKS
ANGOLA *+        N/A     75  68  78 SW7       29.91S
FORT WAYNE     CLOUDY    75  69  81 S9        29.92F
6HR MIN TEMP:  75; 6HR MAX TEMP:  80;


$$

INZ028-029-035-036-043>045-051>053-070700-
WEST CENTRAL INDIANA

CITY           SKY/WX    TMP DP  RH WIND       PRES   REMARKS
GREENCASTLE +  PTCLDY    73  68  83 S6        29.95F
LAFAYETTE      CLOUDY    75  70  84 VRB6      29.89F
6HR MIN TEMP:  75; 6HR MAX TEMP:  81;

TERRE HAUTE    PTCLDY    76  73  91 S10       29.93F
6HR MIN TEMP:  72; 6HR MAX TEMP:  83; 6HR PCP:  0.15;


$$

INZ030>032-037>040-046>048-054>057-064-065-070700-
CENTRAL INDIANA

CITY           SKY/WX    TMP DP  RH WIND       PRES   REMARKS
INDIANAPOLIS   CLOUDY    77  70  79 S12       29.93F
6HR MIN TEMP:  76; 6HR MAX TEMP:  82;

-EAGLE CREEK   MOCLDY    77  71  82 VRB6      29.93F
6HR MIN TEMP:  77; 6HR MAX TEMP:  82;

KOKOMO *+      CLOUDY    75  70  83 S10       29.92S
6HR MIN TEMP:  75; 6HR MAX TEMP:  82;

MT COMFORT *+  PTCLDY    73 N/A N/A S6        29.96F
SHELBYVILLE    PTCLDY    76  71  85 S9        29.96F
6HR MIN TEMP:  76; 6HR MAX TEMP:  82;


$$

INZ033-034-041-042-049-050-058-059-070700-
EAST CENTRAL INDIANA

CITY           SKY/WX    TMP DP  RH WIND       PRES   REMARKS
MUNCIE         MOCLDY    76  70  82 S9        29.94F
6HR MIN TEMP:  76; 6HR MAX TEMP:  82;


$$

INZ060-061-067>069-081>083-085>088-070700-
SOUTHWEST INDIANA

CITY           SKY/WX    TMP DP  RH WIND       PRES   REMARKS
EVANSVILLE     MOCLDY    79  73  82 SW12      29.98S
6HR MIN TEMP:  78; 6HR MAX TEMP:  85;

HUNTINGBURG *+ MOCLDY    75  72  88 S7        29.99S
6HR MIN TEMP:  75; 6HR MAX TEMP:  82;


$$

INZ062-063-066-070>080-084-089>092-070700-
SOUTH CENTRAL AND SOUTHEAST INDIANA

CITY           SKY/WX    TMP DP  RH WIND       PRES   REMARKS
BLOOMINGTON    PTCLDY    76  72  87 S8        29.97S
6HR MIN TEMP:  76; 6HR MAX TEMP:  81;

MADISON *+     PTCLDY    73  68  83 S6        30.02F

$$



USA.gov is the U.S. government's official web portal to all federal, state and local government web resources and services.